Regional Weather Roundup
Issued by NWS Charleston, SC

Current Version | Previous Version | Text Only | Print | Product List | Glossary Off
Versions: 1 2 3 4 5 6 7 8 9 10 11 12 13 14 15 16 17 18 19 20 21 22 23 24 25 26 27 28 29 30 31 32 33 34 35 36 37 38 39 40 41 42 43 44 45 46 47 48 49 50

000
ASUS42 KCHS 230027
RWRCHS

REGIONAL WEATHER ROUNDUP
NATIONAL WEATHER SERVICE CHARLESTON SC
800 PM EDT SAT JUL 22 2017

NOTE: "FAIR" INDICATES FEW OR NO CLOUDS BELOW 12,000 FEET WITH NO
SIGNIFICANT WEATHER AND/OR OBSTRUCTIONS TO VISIBILITY.

NOT ALL STATIONS ARE QUALITY CONTROLLED. USE DATA WITH CAUTION...
ESPECIALLY DEWPOINT OBSERVATIONS.

SCZ027-030-031-034>040-042>050-230100-
...SOUTHEAST SOUTH CAROLINA...

CITY           SKY/WX    TMP DP  RH WIND       PRES   REMARKS
N CHARLESTON   CLEAR     84  72  67 S10       29.96S
6HR MIN TEMP:  84; 6HR MAX TEMP:  92;

WATERFRONT PRK   N/A     85  77  76 SW9       29.95S HX  95
JOHNS ISLAND   FAIR      84  75  74 SW9       29.97S HX  92
PINOPOLIS        N/A     90  77  66 SW5       29.88R HX 102
MONCKS CORNER  FAIR      82  73  74 S7        29.95S
SUMMERVILLE    FAIR      84  75  74 S3        29.97S HX  92
BEAUFORT MCAS  CLEAR     86  76  71 S12G21    29.96F HX  96
6HR MIN TEMP:  86; 6HR MAX TEMP:  94;

BEAUFORT ARPT  FAIR      82  73  74 S9G16     29.97R
HILTON HEAD IS CLEAR     84  77  79 S12G20    29.98S HX  94
WALTERBORO     CLEAR     84  75  74 S6        29.96S HX  92
ALLENDALE      NOT AVBL

...SOUTHERN MIDLANDS AND PEE DEE...

CITY           SKY/WX    TMP DP  RH WIND       PRES   REMARKS
GEORGETOWN     FAIR      81  77  89 S8        29.97S
KINGSTREE      FAIR      86  73  66 CALM      29.93F HX  93
ORANGEBURG     CLEAR     87  73  62 S8        29.94S HX  94
6HR MIN TEMP:  87; 6HR MAX TEMP:  93;

BARNWELL       FAIR      90  77  66 CALM      29.95R HX 102
AIKEN          FAIR      86  73  66 S6        29.98S HX  93
MANNING        FAIR      88  72  58 SW5       29.94S HX  94
COLUMBIA       PTCLDY    91  73  55 S8        29.92S HX  99
6HR MIN TEMP:  91; 6HR MAX TEMP:  96;

SUMTER         NOT AVBL
FLORENCE       CLEAR     88  74  63 S8        29.93R HX  96
6HR MIN TEMP:  88; 6HR MAX TEMP:  93;

MYRTLE BEACH   CLEAR     84  75  74 S17       29.95R HX  92
N MYRTLE BEACH CLEAR     82  77  84 SW18      29.94R HX  90
6HR MIN TEMP:  82; 6HR MAX TEMP:  87;


$$

GAZ063-065-086>088-099>101-113>116-118-119-134>141-150-230100-
...SOUTHEAST GEORGIA...

CITY           SKY/WX    TMP DP  RH WIND       PRES   REMARKS
SAVANNAH ARPT  PTCLDY    86  73  65 SW13      29.97S HX  93
6HR MIN TEMP:  86; 6HR MAX TEMP:  92;

HUNTER AAF     NOT AVBL
FORT STEWART   NOT AVBL
STATESBORO     CLEAR     88  74  62 S9        29.96R HX  96
SYLVANIA       CLEAR     83  79  86 CALM      29.96S HX  94
CLAXTON        FAIR      87  77  73 CALM      29.96S HX  98

...CSRA...CENTRAL AND FAR SOUTHEAST GEORGIA...

CITY           SKY/WX    TMP DP  RH WIND       PRES   REMARKS
THOMSON        CLEAR     87  74  66 W3        29.99S HX  95
AUGUSTA-BUSH   CLEAR     90  75  61 S7        29.93R HX 100
6HR MIN TEMP:  90; 6HR MAX TEMP:  95;

AUGUSTA-DANIEL CLEAR     92  70  48 S10       29.94S HX  97
SWAINSBORO     FAIR      81  77  89 CALM      29.96F
VIDALIA        CLEAR     88  75  66 SW3       29.97R HX  97
EASTMAN        FAIR      88  64  43 SW5       29.98S
HAZLEHURST     FAIR      87  79  77 CALM      29.96R HX 100
ALMA           PTCLDY    86  75  69 S5        29.97R HX  95
6HR MIN TEMP:  86; 6HR MAX TEMP:  94;

WAYCROSS       CLEAR     85  79  82 S8        29.98S HX  98
JESUP          NOT AVBL
BAXLEY         FAIR      86  82  89 S6        29.96S HX 105
BRUNSWICK      CLEAR     81  73  78 SW5       29.99F
SAINT SIMONS   CLEAR     81  74  79 SW12      29.98R
6HR MIN TEMP:  81; 6HR MAX TEMP:  91;


$$

SCZ027-028-034-036>038-045-046-048>050-GAZ119-141-230100-
...LAKE AND SUPPLEMENTAL COASTAL OBSERVATIONS...

STATION/POSITION TIME  TEMP    WIND        PRES    WAVE   SWELL
                       AIR SEA DIR/SP/G            HT/PER HT/PER/DIR
                 (UTC) (F)     (DEG/KT/KT) (MB)    (FT/S) (FT/S/D)
WINYAH BAY       2345   84     210/ 15     1014.0S
LAKE MURRAY      NOT AVBL
ACE BASIN NERRS  2345   85     170/  1     1015.0S
FORT PULASKI     0000   84 86  210/ 13/ 17 1015.1
SAPELO ISLAND    0000   82     230/ 11     1015.0

$$

ANZ835-935-AMZ111-154-330-350-352-354-370-450-454-472-230100-
...C-MAN AND BUOY OBSERVATIONS...

STATION/POSITION TIME  TEMP    WIND        PRES    WAVE   SWELL
                       AIR SEA DIR/SP/G            HT/PER HT/PER/DIR
                 (UTC) (F)     (DEG/KT/KT) (MB)    (FT/S) (FT/S/D)
BUOY 41004       0010   83 84  210/ 17/ 21 1014.4
BUOY 41008       2350   81 83  220/ 12/ 14 1014.6F   3/ 4   2/130/10
FOLLY BEACH CMAN 0000   84     210/ 16/ 19 1015.5S
CAPERS NEARSHORE 0008   81 83  230/ 16/ 21 1014.3R
FRIPP NEARSHORE  0008   83 84  210/ 17/ 25 1014.2R


STATION/POSITION TIME  TEMP    WIND        PRES    WAVE   SWELL
                       AIR SEA DIR/SP/G            HT/PER HT/PER/DIR
                 (UTC) (F)     (DEG/KT/KT) (MB)    (FT/S) (FT/S/D)
5E ST. MARYS GA  0000      83                N/A     3/ 9
FRYING PAN BUOY  0010   83 84  220/ 17/ 21 1014.3
BUOY 41025       2350   83 81  230/ 19/ 23 1012.5R   5/ 5   2/140/ 9
CAPE LOOKOUT NC  0000   82     220/ 10/ 13 1013.4R
BUOY 41002       2350   83 84  210/ 16/ 17 1016.8R   4/ 8   3/100/ 8
BUOY 41010       0010   84 85  210/ 12/ 14 1017.9
ST AUGUSTINE FL  0000   75 81  190/  7/  8 1016.8F


$$



USA.gov is the U.S. government's official web portal to all federal, state and local government web resources and services.